Location: Gilevgi
(36.8751°N, 30.0581°E)
Time: 08:31:40
(UTC+00:00)

Okean 1-7 Rocket - Pass Details

Date: 22 March 2026
Orbit: 609 x 643 km, 82.5° (Epoch: 18 April)

Event Time Altitude Azimuth Distance (km) Brightness Sun altitude
Rises 16:46:24 0° 233° (SW) 2,940 7.8 -7.4°
Reaches altitude 10° 16:49:57 10° 263° (W) 2,034 7.7 -8.1°
Maximum altitude 16:51:54 13° 289° (WNW) 1,867 7.5 -8.5°
Drops below altitude 10° 16:53:51 10° 314° (NW) 2,035 7.1 -8.9°
Sets 16:57:25 0° 344° (NNW) 2,943 7.4 -9.6°
